Weather History for Khudzhand, Russia

Change the Weather History Date:

Tuesday, October 9, 2012

  Actual Average Record
Temperature  
Mean Temperature 61 °F -  
Max Temperature 78 °F - - ()
Min Temperature 44 °F - - ()
Degree Days  
Heating Degree Days 4    
Growing Degree Days 11 (Base 50)    
Moisture  
Dew Point 34 °F    
Average Humidity 41    
Maximum Humidity 81    
Minimum Humidity 13    
Precipitation  
Precipitation 0.00 in - - ()
Sea Level Pressure  
Sea Level Pressure 29.99 in    
Wind  
Wind Speed 4 mph ()    
Max Wind Speed 9 mph    
Max Gust Speed -    
Visibility 6.2 miles    
Events      
T = Trace of Precipitation, MM = Missing Value Source: Averaged Metar Reports

Daily Weather History Graph

Daily Weather History Graph

Search for Another Location

Airport:

Trip Planner

Search our weather history database for the weather conditions in past years. The results will help you decide how hot, cold, wet, or windy it might be!

Date:

Astronomy

Oct. 09, 2012 Rise Set
Actual Time 7:25 AM YEKT 6:50 PM YEKT
Civil Twilight 6:58 AM YEKT 7:17 PM YEKT
Nautical Twilight 6:27 AM YEKT 7:49 PM YEKT
Astronomical Twilight 5:55 AM YEKT 8:20 PM YEKT
Moon 12:36 AM YEKT (10/9) 3:01 PM YEKT (10/9)
Length of Visible Light 12h 19m
Length of Day
11h 24m
Last Quarter, 41% of the Moon is Illuminated
Oct 9
Last Quarter
Oct 15
New
Oct 22
First Quarter
Oct 30
Full
Nov 7
Last Quarter

Hourly Weather History & Observations

Time (YEKT) Temp. Dew Point Humidity Pressure Visibility Wind Dir Wind Speed Gust Speed Precip Events Conditions
12:00 AM 55.4 °F 30.2 °F 38% 30.06 in 6.2 mi West 4.5 mph - N/A   Overcast
12:30 AM 55.4 °F 30.2 °F 38% 30.06 in 6.2 mi West 4.5 mph - N/A   Overcast
1:00 AM 53.6 °F 30.2 °F 41% 30.01 in 6.2 mi WSW 6.7 mph - N/A   Mostly Cloudy
1:30 AM 53.6 °F 30.2 °F 41% 30.01 in 6.2 mi WSW 8.9 mph - N/A   Mostly Cloudy
2:00 AM 53.6 °F 30.2 °F 41% 30.01 in 6.2 mi ESE 2.2 mph - N/A   Mostly Cloudy
2:30 AM 50.0 °F 32.0 °F 50% 30.01 in 6.2 mi Calm Calm - N/A   Mostly Cloudy
3:00 AM 48.2 °F 33.8 °F 58% 30.01 in 6.2 mi SSE 2.2 mph - N/A   Mostly Cloudy
3:30 AM 51.8 °F 30.2 °F 44% 30.01 in 6.2 mi ESE 6.7 mph - N/A   Mostly Cloudy
4:00 AM 50.0 °F 30.2 °F 47% 30.01 in 6.2 mi ESE 6.7 mph - N/A   Mostly Cloudy
4:30 AM 50.0 °F 33.8 °F 54% 30.01 in 6.2 mi SE 4.5 mph - N/A   Mostly Cloudy
5:00 AM 48.2 °F 35.6 °F 62% 30.01 in 6.2 mi SE 4.5 mph - N/A   Mostly Cloudy
5:30 AM 46.4 °F 37.4 °F 71% 30.01 in 6.2 mi Calm Calm - N/A   Mostly Cloudy
6:00 AM 48.2 °F 37.4 °F 66% 30.01 in 6.2 mi Calm Calm - N/A   Mostly Cloudy
6:30 AM 48.2 °F 39.2 °F 71% 30.01 in 6.2 mi Calm Calm - N/A   Mostly Cloudy
7:00 AM 44.6 °F 37.4 °F 76% 30.01 in 6.2 mi North 2.2 mph - N/A   Mostly Cloudy
7:30 AM 46.4 °F 39.2 °F 76% 30.01 in 6.2 mi SE 2.2 mph - N/A   Mostly Cloudy
8:00 AM 44.6 °F 39.2 °F 81% 30.01 in 6.2 mi SSE 2.2 mph - N/A   Mostly Cloudy
8:30 AM 50.0 °F 39.2 °F 66% 30.01 in 6.2 mi Calm Calm - N/A   Mostly Cloudy
9:00 AM 55.4 °F 42.8 °F 63% 30.01 in 6.2 mi Calm Calm - N/A   Scattered Clouds
9:30 AM 57.2 °F 44.6 °F 63% 30.01 in 6.2 mi ENE 2.2 mph - N/A   Scattered Clouds
10:00 AM 60.8 °F 44.6 °F 55% 30.01 in 6.2 mi ENE 4.5 mph - N/A   Scattered Clouds
10:30 AM 62.6 °F 42.8 °F 48% 30.01 in 6.2 mi ENE 4.5 mph - N/A   Scattered Clouds
11:00 AM 64.4 °F 39.2 °F 40% 30.01 in 6.2 mi ENE 4.5 mph - N/A   Scattered Clouds
11:30 AM 66.2 °F 41.0 °F 40% 29.98 in 6.2 mi NE 6.7 mph - N/A   Scattered Clouds
12:00 PM 66.2 °F 37.4 °F 35% 29.98 in 6.2 mi NE 6.7 mph - N/A   Scattered Clouds
12:30 PM 68.0 °F 37.4 °F 33% 29.98 in 6.2 mi ENE 6.7 mph - N/A   Scattered Clouds
1:00 PM 69.8 °F 33.8 °F 27% 29.98 in 6.2 mi ENE 6.7 mph - N/A   Mostly Cloudy
1:30 PM 71.6 °F 33.8 °F 25% 29.95 in 6.2 mi ENE 4.5 mph - N/A   Mostly Cloudy
2:00 PM 73.4 °F 33.8 °F 23% 29.95 in 6.2 mi ENE 4.5 mph - N/A   Mostly Cloudy
2:30 PM 75.2 °F 32.0 °F 21% 29.92 in 6.2 mi East 4.5 mph - N/A   Mostly Cloudy
3:00 PM 77.0 °F 24.8 °F 14% 29.92 in 6.2 mi Calm Calm - N/A   Mostly Cloudy
3:30 PM 78.8 °F 23.0 °F 13% 29.92 in 6.2 mi Calm Calm - N/A   Mostly Cloudy
4:00 PM 78.8 °F 23.0 °F 13% 29.92 in 6.2 mi Calm Calm - N/A   Mostly Cloudy
4:30 PM 78.8 °F 23.0 °F 13% 29.98 in 6.2 mi SSW 4.5 mph - N/A   Mostly Cloudy
5:00 PM 78.8 °F 26.6 °F 15% 29.95 in 6.2 mi WSW 6.7 mph - N/A   Scattered Clouds
5:30 PM 78.8 °F 23.0 °F 13% 29.98 in 6.2 mi WSW 6.7 mph - N/A   Scattered Clouds
6:00 PM 77.0 °F 32.0 °F 19% 29.98 in 6.2 mi SW 6.7 mph - N/A   Partly Cloudy
6:30 PM 71.6 °F 33.8 °F 25% 29.98 in 6.2 mi SW 8.9 mph - N/A   Partly Cloudy
7:00 PM 68.0 °F 35.6 °F 30% 29.98 in 6.2 mi SW 6.7 mph - N/A   Partly Cloudy
7:30 PM 64.4 °F 33.8 °F 32% 29.98 in 6.2 mi SW 6.7 mph - N/A   Scattered Clouds
8:00 PM 62.6 °F 33.8 °F 34% 29.98 in 6.2 mi WSW 6.7 mph - N/A   Scattered Clouds
8:30 PM 62.6 °F 32.0 °F 32% 29.98 in 6.2 mi WSW 8.9 mph - N/A   Scattered Clouds
9:00 PM 60.8 °F 32.0 °F 34% 29.98 in 6.2 mi WSW 6.7 mph - N/A   Scattered Clouds
9:30 PM 60.8 °F 32.0 °F 34% 29.98 in 6.2 mi WSW 6.7 mph - N/A   Scattered Clouds
10:00 PM 59.0 °F 32.0 °F 36% 29.98 in 6.2 mi West 6.7 mph - N/A   Partly Cloudy
10:30 PM 59.0 °F 32.0 °F 36% 29.98 in 6.2 mi WSW 4.5 mph - N/A   Partly Cloudy
11:00 PM 60.8 °F 30.2 °F 31% 29.98 in 6.2 mi WNW 4.5 mph - N/A   Clear
11:30 PM 60.8 °F 30.2 °F 31% 29.98 in 6.2 mi West 2.2 mph - N/A   Clear